Location: Newark
(40.7830°N, 8.7430°E)
Time: 10:26:33
(UTC+00:00)

ISS - Visible Passes

Search period start: 16 September 2019 00:00
Search period end: 26 September 2019 00:00
Orbit: 411 x 421 km, 51.6° (Epoch: 16 September)

Date Brightness Start Highest point End Pass type
(mag) Time Alt. Az. Time Alt. Az. Time Alt. Az.
16 Sep -1.0 02:47:23 14° ESE 02:47:23 14° ESE 02:47:55 10° ESE visible
16 Sep -1.8 04:20:23 13° WSW 04:20:55 13° SW 04:22:32 10° SSW visible
17 Sep -1.6 18:36:37 10° SSE 18:37:18 12° SSE 18:37:18 12° SSE visible
18 Sep -2.2 19:23:10 10° SW 19:24:55 29° SW 19:24:55 29° SW visible
19 Sep -3.4 18:34:55 10° SSW 18:38:04 41° SE 18:39:17 28° E visible
19 Sep -0.4 20:11:58 10° W 20:12:14 12° W 20:12:14 12° W visible
20 Sep -2.6 19:23:07 10° WSW 19:26:17 40° NNW 19:26:19 40° NNW visible
21 Sep -3.5 18:34:26 10° WSW 18:37:44 67° NW 18:40:12 17° NE visible
21 Sep -0.3 20:12:41 10° WNW 20:13:08 12° NW 20:13:08 12° NW visible
22 Sep -1.6 19:23:37 10° WNW 19:26:16 21° NNW 19:26:49 21° N visible
23 Sep -2.0 18:34:37 10° W 18:37:35 29° NNW 18:40:23 11° NE visible
24 Sep -2.7 17:45:45 10° WSW 17:48:57 43° NNW 17:52:09 10° NE visible
24 Sep -1.1 19:24:20 10° NW 19:26:20 15° N 19:26:45 15° N visible
25 Sep -1.3 18:35:13 10° WNW 18:37:33 18° NNW 18:39:54 10° NNE visible
